This demonstration page uses our WeatherBlox Daily Observations layout. Learn more.

Left ArrowRight Arrow

Hourly Observations for July 14, 2018

Temp ( °F °C ) Dew Point ( °F °C ) Humidity (%) Winds ( mph kmh ) Pressure ( in mb ) Visibility ( mi km ) Precip ( " mm )
12:59 am 00:59 Mostly Clear 69 20.6 63 17.2 81 81 SE 3 6 30.20 1023 10 16 0.00 0.00
1:59 am 01:59 Mostly Clear 67 19.4 64 17.8 91 91 Calm 30.20 1023 10 16 0.00 0.00
2:59 am 02:59 Clear 66 18.9 62 16.7 87 87 Calm 30.19 1022 10 16 0.00 0.00
3:59 am 03:59 Clear 65 18.3 62 16.7 90 90 Calm 30.18 1022 10 16 0.00 0.00
4:59 am 04:59 Mostly Clear 65 18.3 62 16.7 90 90 Calm 30.17 1022 10 16 0.00 0.00
5:59 am 05:59 Mostly Sunny 64 17.8 62 16.7 93 93 Calm 30.18 1022 10 16 0.00 0.00
6:59 am 06:59 Mostly Sunny 68 20 65 18.3 90 90 Calm 30.19 1022 10 16 0.00 0.00
7:59 am 07:59 Partly Cloudy 75 23.9 64 17.8 69 69 ENE 5 7 30.19 1022 10 16 0.00 0.00
8:59 am 08:59 Mostly Sunny 76 24.4 64 17.8 67 67 ENE 8 13 30.18 1022 10 16 0.00 0.00
9:59 am 09:59 Mostly Sunny 77 25 63 17.2 62 62 ENE 6 9 30.19 1022 10 16 0.00 0.00
10:59 am 10:59 Mostly Sunny 79 26.1 64 17.8 60 60 ENE 8 13 30.20 1023 10 16 0.00 0.00
11:59 am 11:59 Mostly Sunny 79 26.1 62 16.7 56 56 NE 8 13 30.20 1023 10 16 0.00 0.00
12:59 pm 12:59 Mostly Sunny 80 26.7 62 16.7 54 54 NE 8 13 30.19 1022 10 16 0.00 0.00
1:59 pm 13:59 Mostly Sunny 81 27.2 62 16.7 53 53 ENE 9 15 30.18 1022 10 16 0.00 0.00
2:59 pm 14:59 Mostly Sunny 82 27.8 62 16.7 51 51 ENE 10 17 30.17 1022 10 16 0.00 0.00
3:59 pm 15:59 Mostly Sunny 82 27.8 62 16.7 51 51 E 10 17 30.15 1021 10 16 0.00 0.00
4:59 pm 16:59 Mostly Sunny 83 28.3 65 18.3 55 55 ENE 9 15 30.14 1021 10 16 0.00 0.00
5:59 pm 17:59 Mostly Sunny 83 28.3 56 13.3 40 40 ESE 6 9 30.12 1020 10 16 0.00 0.00
6:59 pm 18:59 Mostly Sunny 81 27.2 60 15.6 49 49 SE 8 13 30.11 1020 10 16 0.00 0.00
7:59 pm 19:59 Sunny 78 25.6 62 16.7 58 58 SE 8 13 30.11 1020 10 16 0.00 0.00
8:59 pm 20:59 Mostly Clear 75 23.9 64 17.8 69 69 SSE 6 9 30.11 1020 10 16 0.00 0.00
9:59 pm 21:59 Clear 74 23.3 65 18.3 74 74 S 6 9 30.13 1020 10 16 0.00 0.00
10:59 pm 22:59 Clear 73 22.8 65 18.3 76 76 S 6 9 30.12 1020 10 16 0.00 0.00
11:59 pm 23:59 Clear 72 22.2 66 18.9 82 82 S 5 7 30.13 1020 10 16 0.00 0.00

Powered by AerisWeather